Regional Weather Roundup
Issued by NWS

Home | Current Version | Previous Version | Graphics & Text | Print | Product List | Glossary On
Versions: 1 2 3 4 5 6 7 8 9 10 11 12 13 14 15 16 17 18 19 20 21 22 23 24 25 26 27 28 29 30 31 32 33 34 35 36 37 38 39 40 41 42 43 44 45 46 47 48 49 50
000
ASUS43 KMPX 250710
RWRMN
WEATHER ROUNDUP FOR MINNESOTA
NATIONAL WEATHER SERVICE TWIN CITIES/CHANHASSEN MN
200 AM CDT SUN JUN 25 2017


NOTE: "FAIR" INDICATES FEW OR NO CLOUDS BELOW 12,000 FEET WITH NO
SIGNIFICANT WEATHER AND/OR OBSTRUCTIONS TO VISIBILITY. N/A MEANS
CURRENT SKY AND/OR WEATHER CONDITIONS ARE NOT AVAILABLE.

MNZ060>063-068>070-250800-
   Twin Cities Metro

CITY           SKY/WX    TMP DP  RH WIND       PRES   REMARKS
TWIN CITIES    MOCLDY    57  48  72 NW9       30.07F
ST PAUL        MOCLDY    56  49  77 NW14      30.08S
CRYSTAL        CLOUDY    56  46  69 NW10      30.06F
BLAINE         MOCLDY    57  48  72 NW9       30.07S
LAKEVILLE        N/A     54  48  82 W5        30.08F
EDEN PRAIRIE   CLOUDY    58  48  69 NW10      30.07F
SOUTH ST PAUL  MOCLDY    57  47  70 NW12G17   30.07S
LAKE ELMO      FAIR      54  50  87 NW8       30.07F
$$
MNZ001>005-007-008-013>017-022>024-027-028-250800-
   Northwest Minnesota

CITY           SKY/WX    TMP DP  RH WIND       PRES   REMARKS
BEMIDJI        DRIZZLE   50  49  97 NW13G20   30.08S
HALLOCK        CLEAR     45  43  93 NW7       30.18S
ROSEAU         LGT RAIN  50  45  81 NW10      30.14S
WARROAD        LGT RAIN  48  46  93 NW12G17   30.13S
THIEF RVR FALL CLOUDY    49  46  90 NW14      30.16S
CROOKSTON      CLOUDY    50  45  81 NW9       30.18S
FOSSTON        CLOUDY    48  46  93 NW10G17   30.14S
DETROIT LAKES  DRIZZLE   48  46  93 NW12G20   30.15S
MOORHEAD       CLOUDY    52  43  71 NW12G18   30.18S
PARK RAPIDS    CLOUDY    51  47  86 NW12      30.09S
MAHNOMEN       CLOUDY    49  47  92 NW12      30.14S
$$
MNZ006-009>011-018-025>026-250800-
   North Central Minnesota

CITY           SKY/WX    TMP DP  RH WIND       PRES   REMARKS
BAUDETTE       LGT RAIN  53  51  93 NW10      30.08S
FLAG ISLAND    CLOUDY    52  50  93 NW17      30.09S
INTL FALLS     CLOUDY    53  50  89 N7        30.04S
WASKISH        LGT RAIN  54  52  94 N8        30.08S
BIG FORK       CLOUDY    54  50  87 N3        30.04S
LONGVILLE      LGT RAIN  54  52  94 W8        30.05S
GRAND RAPIDS   CLOUDY    54  52  93 NW7       30.05S
CRANE LAKE     CLOUDY    54  52  94 CALM      30.03S
ORR            CLOUDY    52  48  87 CALM      30.00S
COOK           CLOUDY    54  52  94 CALM      30.01F
WALKER         HVY RAIN  51  50  98 NW10      30.06S
$$
MNZ012-019>021-037-250800-
   Northeast Minnesota

CITY           SKY/WX    TMP DP  RH WIND       PRES   REMARKS
DULUTH         MOCLDY    52  50  93 NW7       29.99S
ELY            CLOUDY    54  52  94 N3        29.99F
HIBBING        CLOUDY    51  50  96 NW3       30.01S
EVELETH        CLOUDY    54  48  80 NW6       30.01F
DULUTH HARBOR  CLOUDY    57  52  82 W9        30.00S
TWO HARBORS    MOCLDY    57  52  82 CALM      29.97S
SILVER BAY     CLOUDY    55  52  88 NW5       29.96S
GRAND MARAIS     N/A     56  53  90 VRB7G17   29.94S
G MARAIS ARPRT CLOUDY    50  46  87 N6        29.98S
$$
MNZ029>031-032-039>041-046>048-054>057-064-250800-
   West Central Minnesota

CITY           SKY/WX    TMP DP  RH WIND       PRES   REMARKS
FERGUS FALLS   CLOUDY    48  45  87 NW13      30.16S
WHEATON        PTCLDY    50  43  76 NW9       30.21S
MORRIS         CLOUDY    52  46  82 NW14G20   30.16F
ALEXANDRIA     CLOUDY    50  48  93 NW14G24   30.14S
ELBOW LAKE     CLOUDY    49  46  88 NW12      30.17S
WADENA         CLOUDY    48  46  93 NW15G23   30.10F
GLENWOOD       CLOUDY    52  46  82 NW16G23   30.14S
APPLETON       CLOUDY    54  45  71 NW12G20   30.18R
BENSON         CLOUDY    52  46  82 N13       30.18S
ORTONVILLE     MOCLDY    52  43  71 NW9G16    30.19S
MADISON        MOCLDY    57  46  67 NW14      30.19S
WILLMAR        CLOUDY    54  46  76 NW16      30.16R
$$
MNZ033>034-036-042>043-049>051-058-059-250800-
   Central Minnesota

CITY           SKY/WX    TMP DP  RH WIND       PRES   REMARKS
ST CLOUD       CLOUDY    54  49  83 NW10      30.09S
SAUK CENTRE    CLOUDY    52  46  82 NW15G21   30.12S
PAYNESVILLE    CLOUDY    53  45  75 NW10G21   30.12S
AITKIN         CLOUDY    52  48  87 SW5       30.03F
PINE RIVER     CLOUDY    52  52 100 W5        30.09F
BRAINERD       CLOUDY    53  49  86 NW12      30.07F
STAPLES        CLOUDY    50  46  87 NW12      30.09S
LONG PRAIRIE   CLOUDY    50  46  87 W14       30.11F
LITTLE FALLS   CLOUDY    52  45  76 W9G17     30.09S
LITCHFIELD     CLOUDY    55  50  82 NW15G21   30.11F
BUFFALO        CLOUDY    56  48  74 W7        30.09F
MAPLE LAKE     CLOUDY    56  50  80 NW9       30.10S
HUTCHINSON     MOCLDY    55  50  83 W12       30.12F
$$
MNZ037-044-045-052-053-250800-
   East Central Minnesota

CITY           SKY/WX    TMP DP  RH WIND       PRES   REMARKS
PRINCETON      CLOUDY    55  48  76 W9        30.08S
MORA           CLEAR     50  46  87 NW7       30.07S
CAMBRIDGE      CLOUDY    55  46  71 W8        30.05S
RUSH CITY      CLOUDY    52  48  87 W5        30.05F
MOOSE LAKE     CLEAR     50  46  87 W5        30.01S
HINCKLEY       FAIR      52  50  93 W7        30.04S
CLOQUET        MOCLDY    52  46  82 W6        30.02R
MCGREGOR       CLOUDY    52  50  93 W8        30.04S
$$
MNZ071>073-080-081-089-090-097-098-250800-
   Southwest Minnesota

CITY           SKY/WX    TMP DP  RH WIND       PRES   REMARKS
MONTEVIDEO     CLOUDY    54  45  71 N16G22    30.17S
GRANITE FALLS  CLOUDY    57  46  68 NW14      30.18S
CANBY          CLOUDY    55  47  76 CALM      30.20S
MARSHALL       MOCLDY    55  46  71 NW14G21   30.18F
REDWOOD FALLS  CLOUDY    55  43  63 NW12G21   30.15S
OLIVIA         MOCLDY    54  46  76 NW9       30.14S
PIPESTONE      MOCLDY    55  45  67 NW7       30.20S
WINDOM         CLEAR     54  45  71 W9        30.17S
WORTHINGTON    CLEAR     48  44  86 W8        30.20F
JACKSON        CLEAR     54  43  66 NW10      30.18S
TRACY          MOCLDY    55  47  72 NW13      30.18F
SLAYTON        CLEAR     53  31  42 NW13G21   30.20S
$$
MNZ065>067-074>077-082>085-091>093-250800-
   South Central Minnesota

CITY           SKY/WX    TMP DP  RH WIND       PRES   REMARKS
MANKATO        PTCLDY    53  47  79 W9        30.13S
NEW ULM        CLEAR     52  45  76 W9        30.14S
ST JAMES       CLOUDY    54  46  76 W10       30.16S
FAIRMONT       CLEAR     53  45  74 NW9       30.16F
GLENCOE        MOCLDY    56  53  89 W5        30.10F
FARIBAULT      PTCLDY    54  46  76 W8        30.10S
OWATONNA       CLEAR     52  46  82 W8        30.11S
WASECA         CLEAR     52  46  82 W7        30.13S
ALBERT LEA     CLEAR     54  45  71 W6        30.12F
$$
MNZ078>079-086>088-094>096-250800-
   Southeast Minnesota

CITY           SKY/WX    TMP DP  RH WIND       PRES   REMARKS
ROCHESTER      CLEAR     48  45  89 W8        30.10S
RED WING       CLEAR     54  46  76 NW6       30.06S
STANTON        PTCLDY    53  47  79 W5        30.08S
DODGE CENTER   CLEAR     48  45  87 W7        30.10S
WINONA         CLEAR     52  46  82 NW6       30.07S
AUSTIN         CLEAR     52  45  76 W7        30.11S
PRESTON        CLEAR     49  43  79 W9        30.09S
$$
ABBREVIATIONS USED IN REMARKS
   TC - TEMPERATURES IN CELSIUS
  WCI - WIND CHILL INDEX
   HX - HEAT INDEX
  VSB - VISIBILITY
$$



USA.gov is the U.S. government's official web portal to all federal, state and local government web resources and services.